LVWOC SADF-SAZB

Flight info

Callsign LVWOC
Flight time N/A
Altitude 24000
Route EZE UW29 GBE UT694 XODIK UW18 MOXAN MOXAN1U
Aircraft BE60/L-SDFGRY/C

Departure

Time 2026-04-18 16:15
Airport San Fernando Airport (SADF)

Arrival

Time N/A
Airport Comandante Espora Airport (SAZB)
Time Latitude Longitude Altitude Speed Heading
2026-04-18 16:01 -34.45545 -58.58360 21 ft 0 kts 201°
2026-04-18 16:10 -34.45554 -58.58368 21 ft 1 kts 232°
2026-04-18 16:12 -34.45558 -58.58379 23 ft 8 kts 261°
2026-04-18 16:12 -34.45487 -58.58352 21 ft 23 kts 60°
2026-04-18 16:12 -34.45398 -58.58133 21 ft 28 kts 73°
2026-04-18 16:12 -34.45329 -58.57985 21 ft 13 kts 27°
2026-04-18 16:13 -34.45282 -58.58004 21 ft 7 kts 329°
2026-04-18 16:13 -34.45243 -58.58034 21 ft 7 kts 327°
2026-04-18 16:13 -34.45202 -58.58065 21 ft 7 kts 331°
2026-04-18 16:13 -34.45129 -58.58117 21 ft 19 kts 327°
2026-04-18 16:14 -34.44980 -58.58218 21 ft 24 kts 330°
2026-04-18 16:14 -34.44897 -58.58284 21 ft 4 kts 321°
2026-04-18 16:14 -34.44855 -58.58369 21 ft 19 kts 257°
2026-04-18 16:14 -34.45068 -58.58636 22 ft 86 kts 225°
2026-04-18 16:15 -34.46702 -58.60042 617 ft 196 kts 218°
2026-04-18 16:15 -34.47886 -58.61098 883 ft 222 kts 217°
2026-04-18 16:15 -34.49137 -58.62215 1272 ft 219 kts 217°
2026-04-18 16:16 -34.50332 -58.63279 1729 ft 206 kts 218°
2026-04-18 16:16 -34.51485 -58.64298 1880 ft 207 kts 218°
2026-04-18 16:16 -34.52655 -58.65338 1885 ft 209 kts 217°
2026-04-18 16:16 -34.53830 -58.66385 1881 ft 208 kts 218°
2026-04-18 16:17 -34.54975 -58.67416 1874 ft 202 kts 218°
2026-04-18 16:17 -34.56087 -58.68401 1879 ft 196 kts 217°
2026-04-18 16:17 -34.57169 -58.69366 1871 ft 194 kts 217°
2026-04-18 16:17 -34.58242 -58.70322 2040 ft 185 kts 216°
2026-04-18 16:18 -34.59332 -58.71181 2059 ft 191 kts 213°
2026-04-18 16:18 -34.60464 -58.72044 2052 ft 193 kts 213°
2026-04-18 16:18 -34.61601 -58.72912 2076 ft 192 kts 213°
2026-04-18 16:18 -34.62724 -58.73775 2078 ft 191 kts 213°
2026-04-18 16:19 -34.63780 -58.74596 2078 ft 190 kts 212°
2026-04-18 16:19 -34.64992 -58.75173 2323 ft 186 kts 193°
2026-04-18 16:19 -34.66242 -58.74941 2781 ft 188 kts 150°
2026-04-18 16:19 -34.67230 -58.73886 3231 ft 190 kts 137°
2026-04-18 16:20 -34.68172 -58.72746 3664 ft 192 kts 137°
2026-04-18 16:20 -34.69137 -58.71584 4142 ft 200 kts 137°
2026-04-18 16:20 -34.70134 -58.70381 4689 ft 208 kts 137°
2026-04-18 16:20 -34.71167 -58.69124 5227 ft 212 kts 137°
2026-04-18 16:21 -34.72214 -58.67841 5771 ft 215 kts 137°
2026-04-18 16:21 -34.73270 -58.66539 6312 ft 217 kts 137°
2026-04-18 16:21 -34.74329 -58.65228 6833 ft 217 kts 137°
2026-04-18 16:21 -34.75383 -58.63911 7356 ft 217 kts 137°
2026-04-18 16:22 -34.76431 -58.62586 7888 ft 217 kts 137°
2026-04-18 16:22 -34.77469 -58.61258 8393 ft 217 kts 137°
2026-04-18 16:22 -34.78398 -58.60055 8890 ft 216 kts 137°
2026-04-18 16:22 -34.79524 -58.58901 9428 ft 209 kts 154°
2026-04-18 16:23 -34.80855 -58.58286 9952 ft 202 kts 176°
2026-04-18 16:23 -34.82239 -58.58230 10462 ft 198 kts 184°
2026-04-18 16:23 -34.84976 -58.58289 11504 ft 195 kts 185°
2026-04-18 16:24 -34.86322 -58.58340 11969 ft 196 kts 188°
2026-04-18 16:24 -34.87684 -58.58497 12436 ft 197 kts 190°
2026-04-18 16:24 -34.89046 -58.58676 12911 ft 196 kts 193°
2026-04-18 16:24 -34.90373 -58.59024 13391 ft 195 kts 198°
2026-04-18 16:25 -34.91682 -58.59427 13853 ft 194 kts 198°
2026-04-18 16:25 -34.92991 -58.59827 14282 ft 193 kts 198°
2026-04-18 16:25 -34.94297 -58.60216 14720 ft 193 kts 198°
2026-04-18 16:25 -34.95603 -58.60596 15166 ft 193 kts 198°
2026-04-18 16:26 -34.96927 -58.60883 15621 ft 197 kts 186°
2026-04-18 16:26 -34.98321 -58.60778 16027 ft 204 kts 185°
2026-04-18 16:26 -34.99726 -58.60916 16397 ft 203 kts 198°
2026-04-18 16:26 -35.01091 -58.61454 16720 ft 210 kts 206°
2026-04-18 16:27 -35.02453 -58.62097 17058 ft 216 kts 206°
2026-04-18 16:27 -35.03878 -58.62741 17398 ft 221 kts 205°
2026-04-18 16:27 -35.05336 -58.63370 17734 ft 223 kts 205°
2026-04-18 16:27 -35.06809 -58.64005 18081 ft 226 kts 205°
2026-04-18 16:28 -35.08292 -58.64648 18387 ft 227 kts 205°
2026-04-18 16:28 -35.09783 -58.65296 18682 ft 228 kts 205°
2026-04-18 16:28 -35.11282 -58.65947 18974 ft 229 kts 205°
2026-04-18 16:28 -35.12789 -58.66601 19271 ft 230 kts 205°
2026-04-18 16:29 -35.14300 -58.67258 19570 ft 231 kts 205°
2026-04-18 16:29 -35.15816 -58.67916 19869 ft 232 kts 205°
2026-04-18 16:29 -35.17337 -58.68578 20179 ft 232 kts 205°
2026-04-18 16:29 -35.18862 -58.69241 20482 ft 233 kts 205°
2026-04-18 16:30 -35.20391 -58.69907 20794 ft 233 kts 205°
2026-04-18 16:30 -35.21902 -58.70565 21099 ft 234 kts 205°
2026-04-18 16:30 -35.23438 -58.71233 21415 ft 235 kts 205°
2026-04-18 16:30 -35.24979 -58.71904 21739 ft 235 kts 205°
2026-04-18 16:31 -35.26522 -58.72576 22062 ft 236 kts 205°
2026-04-18 16:31 -35.28067 -58.73249 22389 ft 236 kts 205°
2026-04-18 16:31 -35.29617 -58.73925 22720 ft 237 kts 205°
2026-04-18 16:31 -35.31168 -58.74602 23055 ft 237 kts 205°
2026-04-18 16:32 -35.32723 -58.75281 23392 ft 237 kts 205°
2026-04-18 16:32 -35.34279 -58.75962 23682 ft 238 kts 205°
2026-04-18 16:32 -35.35847 -58.76646 23862 ft 243 kts 205°
2026-04-18 16:32 -35.37452 -58.77353 23865 ft 253 kts 205°
2026-04-18 16:33 -35.39137 -58.78099 23874 ft 261 kts 205°
2026-04-18 16:33 -35.40860 -58.78855 23880 ft 265 kts 205°
2026-04-18 16:33 -35.42613 -58.79622 23877 ft 269 kts 205°
2026-04-18 16:33 -35.44383 -58.80399 23876 ft 271 kts 205°
2026-04-18 16:34 -35.46166 -58.81182 23878 ft 273 kts 205°
2026-04-18 16:34 -35.47956 -58.81968 23877 ft 274 kts 205°
2026-04-18 16:34 -35.49755 -58.82758 23877 ft 275 kts 205°
2026-04-18 16:34 -35.51557 -58.83549 23873 ft 275 kts 205°
2026-04-18 16:35 -35.53362 -58.84343 23874 ft 276 kts 205°
2026-04-18 16:35 -35.55169 -58.85137 23870 ft 276 kts 205°
2026-04-18 16:35 -35.56978 -58.85933 23868 ft 276 kts 205°
2026-04-18 16:35 -35.58763 -58.86718 23868 ft 276 kts 205°
2026-04-18 16:36 -35.60576 -58.87516 23864 ft 277 kts 205°
2026-04-18 16:36 -35.62387 -58.88314 23859 ft 277 kts 205°
2026-04-18 16:36 -35.64177 -58.89099 23861 ft 272 kts 205°
2026-04-18 16:36 -35.65967 -58.89885 23862 ft 275 kts 205°
2026-04-18 16:37 -35.67771 -58.90685 23857 ft 277 kts 205°
2026-04-18 16:37 -35.69588 -58.91490 23860 ft 278 kts 205°
2026-04-18 16:37 -35.71411 -58.92295 23858 ft 279 kts 205°
2026-04-18 16:37 -35.73243 -58.93103 23855 ft 280 kts 205°
2026-04-18 16:38 -35.75078 -58.93914 23855 ft 281 kts 205°
2026-04-18 16:38 -35.76916 -58.94728 23859 ft 281 kts 205°
2026-04-18 16:38 -35.78731 -58.95531 23859 ft 281 kts 205°
2026-04-18 16:38 -35.80573 -58.96346 23859 ft 281 kts 205°
2026-04-18 16:39 -35.82415 -58.97162 23858 ft 281 kts 205°
2026-04-18 16:39 -35.84256 -58.97977 23856 ft 281 kts 205°
2026-04-18 16:39 -35.86100 -58.98794 23858 ft 281 kts 205°
2026-04-18 16:39 -35.87944 -58.99612 23859 ft 282 kts 205°
2026-04-18 16:40 -35.89786 -59.00429 23860 ft 282 kts 205°
2026-04-18 16:40 -35.91630 -59.01248 23859 ft 282 kts 205°
2026-04-18 16:40 -35.93474 -59.02067 23861 ft 282 kts 205°
2026-04-18 16:40 -35.95317 -59.02885 23854 ft 282 kts 206°
2026-04-18 16:41 -35.98979 -59.04514 23858 ft 282 kts 206°
2026-04-18 16:41 -36.00824 -59.05335 23857 ft 282 kts 206°
2026-04-18 16:41 -36.02669 -59.06155 23859 ft 282 kts 206°
2026-04-18 16:42 -36.04512 -59.06976 23858 ft 282 kts 206°
2026-04-18 16:42 -36.06356 -59.07798 23861 ft 282 kts 206°
2026-04-18 16:42 -36.08199 -59.08620 23857 ft 282 kts 206°
2026-04-18 16:42 -36.10041 -59.09442 23860 ft 282 kts 206°
2026-04-18 16:43 -36.11884 -59.10264 23857 ft 282 kts 206°
2026-04-18 16:43 -36.13727 -59.11087 23859 ft 281 kts 206°
2026-04-18 16:43 -36.15569 -59.11910 23859 ft 281 kts 206°
2026-04-18 16:43 -36.17411 -59.12733 23858 ft 281 kts 206°
2026-04-18 16:44 -36.19226 -59.13544 23859 ft 281 kts 206°
2026-04-18 16:44 -36.21067 -59.14368 23855 ft 281 kts 206°
2026-04-18 16:44 -36.22908 -59.15192 23858 ft 281 kts 206°
2026-04-18 16:44 -36.24748 -59.16016 23860 ft 281 kts 206°
2026-04-18 16:45 -36.26589 -59.16841 23858 ft 281 kts 206°
2026-04-18 16:45 -36.28430 -59.17666 23858 ft 281 kts 206°
2026-04-18 16:45 -36.30269 -59.18491 23855 ft 281 kts 206°
2026-04-18 16:45 -36.32110 -59.19317 23856 ft 281 kts 206°
2026-04-18 16:46 -36.33951 -59.20143 23854 ft 281 kts 206°
2026-04-18 16:46 -36.35765 -59.20958 23854 ft 281 kts 206°
2026-04-18 16:46 -36.37605 -59.21785 23857 ft 281 kts 206°
2026-04-18 16:46 -36.39444 -59.22612 23853 ft 281 kts 206°
2026-04-18 16:47 -36.41280 -59.23438 23858 ft 280 kts 206°
2026-04-18 16:47 -36.43112 -59.24262 23856 ft 281 kts 206°
2026-04-18 16:47 -36.44948 -59.25088 23853 ft 281 kts 206°
2026-04-18 16:47 -36.46789 -59.25918 23854 ft 281 kts 206°
2026-04-18 16:48 -36.48629 -59.26748 23853 ft 281 kts 206°
2026-04-18 16:48 -36.50469 -59.27578 23855 ft 282 kts 206°
2026-04-18 16:48 -36.52312 -59.28409 23855 ft 282 kts 206°
2026-04-18 16:48 -36.54154 -59.29241 23855 ft 282 kts 206°
2026-04-18 16:49 -36.55971 -59.30061 23855 ft 282 kts 206°
2026-04-18 16:49 -36.57813 -59.30894 23855 ft 282 kts 206°
2026-04-18 16:49 -36.59656 -59.31727 23857 ft 282 kts 206°
2026-04-18 16:49 -36.61500 -59.32561 23857 ft 282 kts 206°
2026-04-18 16:50 -36.63341 -59.33395 23856 ft 282 kts 206°
2026-04-18 16:50 -36.65185 -59.34229 23857 ft 282 kts 206°
2026-04-18 16:50 -36.67029 -59.35065 23854 ft 282 kts 206°
2026-04-18 16:50 -36.68873 -59.35901 23854 ft 282 kts 206°
2026-04-18 16:51 -36.70716 -59.36736 23853 ft 282 kts 206°
2026-04-18 16:51 -36.72551 -59.37568 23857 ft 278 kts 208°
2026-04-18 16:51 -36.74358 -59.38393 23855 ft 276 kts 208°
2026-04-18 16:51 -36.76158 -59.39211 23851 ft 274 kts 208°
2026-04-18 16:52 -36.77924 -59.40011 23853 ft 273 kts 208°
2026-04-18 16:52 -36.79708 -59.40821 23852 ft 273 kts 208°
2026-04-18 16:52 -36.81488 -59.41630 23853 ft 272 kts 208°
2026-04-18 16:52 -36.83266 -59.42440 23854 ft 272 kts 208°
2026-04-18 16:53 -36.85039 -59.43247 23855 ft 271 kts 208°
2026-04-18 16:53 -36.86813 -59.44055 23853 ft 271 kts 208°
2026-04-18 16:53 -36.88586 -59.44863 23853 ft 271 kts 208°
2026-04-18 16:53 -36.90358 -59.45671 23853 ft 271 kts 208°
2026-04-18 16:54 -36.92126 -59.46478 23852 ft 271 kts 208°
2026-04-18 16:54 -36.93874 -59.47275 23851 ft 271 kts 208°
2026-04-18 16:54 -36.95642 -59.48083 23855 ft 271 kts 208°
2026-04-18 16:54 -36.97412 -59.48891 23854 ft 271 kts 208°
2026-04-18 16:55 -36.99183 -59.49701 23857 ft 271 kts 208°
2026-04-18 16:55 -37.00952 -59.50510 23854 ft 271 kts 208°
2026-04-18 16:55 -37.02722 -59.51320 23853 ft 271 kts 207°
2026-04-18 16:55 -37.04493 -59.52131 23854 ft 271 kts 207°
2026-04-18 16:56 -37.06260 -59.52940 23854 ft 271 kts 208°
2026-04-18 16:56 -37.08030 -59.53751 23855 ft 271 kts 207°
2026-04-18 16:56 -37.09801 -59.54564 23853 ft 271 kts 207°
2026-04-18 16:56 -37.11571 -59.55376 23856 ft 271 kts 207°
2026-04-18 16:57 -37.13340 -59.56188 23854 ft 271 kts 207°
2026-04-18 16:57 -37.15089 -59.56991 23857 ft 271 kts 207°
2026-04-18 16:57 -37.16861 -59.57805 23855 ft 271 kts 207°
2026-04-18 16:57 -37.18533 -59.58806 23854 ft 262 kts 220°
2026-04-18 16:58 -37.20035 -59.60108 23851 ft 263 kts 221°
2026-04-18 16:58 -37.21551 -59.61388 23852 ft 263 kts 220°
2026-04-18 16:58 -37.23072 -59.62662 23852 ft 263 kts 220°
2026-04-18 16:58 -37.24589 -59.63943 23852 ft 263 kts 220°
2026-04-18 16:59 -37.26103 -59.65226 23850 ft 262 kts 220°
2026-04-18 16:59 -37.27615 -59.66506 23849 ft 259 kts 220°
2026-04-18 16:59 -37.29102 -59.67756 23846 ft 259 kts 220°
2026-04-18 16:59 -37.30603 -59.69030 23850 ft 261 kts 220°
2026-04-18 17:00 -37.32114 -59.70315 23848 ft 263 kts 220°
2026-04-18 17:00 -37.33617 -59.71589 23848 ft 265 kts 220°
2026-04-18 17:00 -37.35146 -59.72887 23849 ft 265 kts 220°
2026-04-18 17:00 -37.36677 -59.74186 23847 ft 266 kts 220°
2026-04-18 17:01 -37.38210 -59.75487 23843 ft 266 kts 220°
2026-04-18 17:01 -37.39745 -59.76791 23844 ft 266 kts 220°
2026-04-18 17:01 -37.41281 -59.78097 23850 ft 267 kts 220°
2026-04-18 17:01 -37.42818 -59.79404 23845 ft 267 kts 220°
2026-04-18 17:02 -37.44358 -59.80714 23844 ft 267 kts 220°
2026-04-18 17:02 -37.45899 -59.82025 23842 ft 268 kts 220°
2026-04-18 17:02 -37.47441 -59.83339 23843 ft 268 kts 220°
2026-04-18 17:02 -37.48983 -59.84652 23841 ft 268 kts 220°
2026-04-18 17:03 -37.50505 -59.85949 23843 ft 268 kts 220°
2026-04-18 17:03 -37.52046 -59.87264 23842 ft 268 kts 220°
2026-04-18 17:03 -37.53589 -59.88581 23840 ft 268 kts 220°
2026-04-18 17:03 -37.55132 -59.89898 23841 ft 268 kts 220°
2026-04-18 17:04 -37.56674 -59.91215 23845 ft 268 kts 220°
2026-04-18 17:04 -37.58216 -59.92533 23843 ft 268 kts 220°
2026-04-18 17:04 -37.59757 -59.93851 23837 ft 268 kts 220°
2026-04-18 17:04 -37.61300 -59.95170 23839 ft 268 kts 220°
2026-04-18 17:05 -37.62843 -59.96490 23840 ft 268 kts 220°
2026-04-18 17:05 -37.64385 -59.97811 23839 ft 268 kts 220°
2026-04-18 17:05 -37.65928 -59.99133 23838 ft 268 kts 220°
2026-04-18 17:05 -37.67449 -60.00437 23835 ft 268 kts 220°
2026-04-18 17:06 -37.68992 -60.01760 23835 ft 268 kts 220°
2026-04-18 17:06 -37.70535 -60.03084 23838 ft 268 kts 220°
2026-04-18 17:06 -37.72076 -60.04407 23834 ft 268 kts 220°
2026-04-18 17:06 -37.73619 -60.05732 23833 ft 268 kts 220°
2026-04-18 17:07 -37.75162 -60.07057 23834 ft 268 kts 220°
2026-04-18 17:07 -37.76703 -60.08383 23836 ft 268 kts 220°
2026-04-18 17:07 -37.78246 -60.09710 23833 ft 268 kts 220°
2026-04-18 17:07 -37.79788 -60.11037 23832 ft 268 kts 220°
2026-04-18 17:08 -37.81330 -60.12365 23833 ft 268 kts 220°
2026-04-18 17:08 -37.82852 -60.13677 23830 ft 268 kts 220°
2026-04-18 17:08 -37.84394 -60.15006 23826 ft 268 kts 220°
2026-04-18 17:08 -37.85937 -60.16336 23826 ft 268 kts 220°
2026-04-18 17:09 -37.87479 -60.17667 23830 ft 268 kts 220°
2026-04-18 17:09 -37.89022 -60.19000 23824 ft 268 kts 220°
2026-04-18 17:09 -37.90564 -60.20331 23825 ft 268 kts 220°
2026-04-18 17:09 -37.92107 -60.21665 23827 ft 268 kts 220°
2026-04-18 17:10 -37.93650 -60.22999 23828 ft 268 kts 220°
2026-04-18 17:10 -37.95192 -60.24333 23824 ft 268 kts 220°
2026-04-18 17:10 -37.96735 -60.25668 23823 ft 268 kts 220°
2026-04-18 17:10 -37.98275 -60.27002 23821 ft 268 kts 220°
2026-04-18 17:11 -37.99816 -60.28338 23821 ft 268 kts 220°
2026-04-18 17:11 -38.01359 -60.29675 23822 ft 268 kts 220°
2026-04-18 17:11 -38.02878 -60.30992 23822 ft 268 kts 220°
2026-04-18 17:11 -38.04419 -60.32330 23823 ft 268 kts 220°
2026-04-18 17:12 -38.05960 -60.33668 23820 ft 268 kts 220°
2026-04-18 17:12 -38.07501 -60.35006 23818 ft 268 kts 220°
2026-04-18 17:12 -38.09043 -60.36346 23820 ft 268 kts 220°
2026-04-18 17:12 -38.10582 -60.37685 23820 ft 268 kts 220°
2026-04-18 17:13 -38.12123 -60.39026 23816 ft 268 kts 220°
2026-04-18 17:13 -38.13663 -60.40366 23813 ft 268 kts 220°
2026-04-18 17:13 -38.15100 -60.41839 23812 ft 262 kts 232°
2026-04-18 17:13 -38.16133 -60.43707 23811 ft 257 kts 246°
2026-04-18 17:14 -38.16837 -60.45783 23814 ft 256 kts 250°
2026-04-18 17:14 -38.17524 -60.47866 23816 ft 256 kts 249°
2026-04-18 17:14 -38.18214 -60.49919 23813 ft 256 kts 249°
2026-04-18 17:14 -38.18911 -60.52003 23810 ft 256 kts 249°
2026-04-18 17:15 -38.19607 -60.54089 23812 ft 256 kts 249°
2026-04-18 17:15 -38.20302 -60.56174 23812 ft 256 kts 249°
2026-04-18 17:15 -38.20997 -60.58260 23814 ft 256 kts 249°
2026-04-18 17:15 -38.21692 -60.60346 23813 ft 256 kts 250°
2026-04-18 17:16 -38.22387 -60.62436 23813 ft 257 kts 250°
2026-04-18 17:16 -38.23082 -60.64526 23811 ft 257 kts 250°
2026-04-18 17:16 -38.23777 -60.66618 23810 ft 257 kts 250°
2026-04-18 17:16 -38.24471 -60.68709 23813 ft 257 kts 250°
2026-04-18 17:17 -38.25165 -60.70800 23811 ft 257 kts 250°
2026-04-18 17:17 -38.25858 -60.72890 23809 ft 257 kts 250°
2026-04-18 17:17 -38.26082 -60.73568 23809 ft 256 kts 250°